Theta_e
329 335 331 325 312 310 306 308 314 313 315 319 323 319 318 321 317 314 337 340 340 335 338 347 347 348 348 347 348 347 347 346 345 341 340 338 337 337 337 337 338 338 336 338 339 336 338 339 338
327 329 326 322 309 302 304 310 310 316 318 321 322 321 320 318 328 329 334 340 339 334 342 346 345 347 348 347 347 347 346 345 344 342 339 338 336 336 336 336 335 336 336 337 337 335 337 337 338
325 324 321 315 310 304 305 309 314 316 320 319 319 322 321 322 330 332 339 341 337 338 345 345 345 347 348 347 346 346 346 345 343 340 339 338 338 335 336 335 334 336 335 337 336 335 336 336 336
322 322 317 308 306 309 307 310 316 316 316 318 321 318 325 331 332 336 342 341 336 340 344 343 346 348 347 347 346 346 345 345 343 340 338 337 337 337 337 336 335 335 334 335 334 335 334 334 333
325 321 309 304 305 307 309 309 316 316 316 316 321 318 322 332 337 340 341 340 335 339 343 344 343 346 347 347 346 346 345 344 343 342 341 339 338 337 336 336 336 333 333 334 334 333 333 332 331
316 317 305 301 304 307 310 312 316 317 316 316 316 319 323 335 337 337 341 339 336 337 342 342 337 340 343 344 344 345 344 342 340 340 340 340 338 338 336 336 335 333 332 333 332 331 331 331 330
311 313 306 304 304 306 310 315 315 315 314 315 320 316 324 329 338 337 341 340 337 339 341 342 341 338 336 339 339 340 342 340 339 339 339 338 337 335 335 337 337 333 331 332 331 330 330 329 330
315 314 307 306 303 304 312 314 315 315 313 318 322 312 316 332 336 337 339 339 337 339 340 341 341 341 341 340 333 335 337 337 337 336 334 332 332 332 332 333 335 336 334 334 332 331 330 329 329
316 308 306 307 306 307 313 312 313 316 315 317 320 318 324 336 335 334 333 336 336 336 338 340 340 341 339 339 335 330 332 333 332 332 328 327 332 332 332 329 330 333 332 334 333 331 330 330 328
308 303 307 313 313 310 312 313 311 312 313 315 318 324 331 333 332 330 329 329 332 333 336 338 339 339 339 338 340 338 337 336 335 335 333 332 332 332 330 326 326 329 330 332 333 333 331 327 329
307 302 306 311 313 313 311 311 314 311 310 315 316 321 326 328 329 329 331 333 332 334 335 337 339 339 338 338 339 338 338 337 337 337 335 334 332 332 331 331 330 331 324 331 329 330 330 328 329
301 306 305 308 314 313 309 313 311 313 314 318 321 326 327 327 328 329 330 331 332 332 334 336 339 338 338 338 338 338 336 337 337 337 337 335 333 333 331 330 330 331 330 329 330 329 329 329 328
301 304 306 307 311 312 311 310 312 312 316 318 321 327 328 329 330 332 335 333 333 332 333 336 338 338 337 337 336 336 336 335 336 336 337 336 334 333 332 331 331 330 331 330 329 329 329 329 329
300 303 304 306 307 308 310 310 310 314 317 318 321 324 328 329 330 330 331 332 331 334 333 335 336 339 337 336 336 335 335 335 335 336 335 335 334 334 332 331 331 331 331 331 330 330 329 329 329
301 298 301 303 305 305 308 304 307 314 314 315 319 323 325 328 331 331 333 333 334 334 335 333 333 339 338 337 337 337 337 335 335 334 335 334 333 333 332 332 331 332 332 331 330 330 330 329 329
296 297 295 301 303 305 306 299 307 312 313 314 317 321 324 326 329 331 334 335 336 337 337 338 337 339 339 338 338 338 338 337 336 336 335 334 333 333 332 331 331 331 331 331 330 329 328 329 329
294 290 294 296 302 303 303 299 304 307 312 313 315 319 322 324 327 330 333 335 336 337 337 337 338 338 339 339 339 339 338 338 338 337 336 336 334 334 333 332 332 332 330 328 327 326 325 325 325
289 291 296 294 297 299 300 299 303 304 306 311 315 317 320 322 324 328 331 333 335 336 337 338 338 338 339 339 339 339 338 338 339 338 338 337 336 334 334 334 333 331 328 327 325 325 325 325 325
293 291 294 294 294 297 298 299 301 303 302 304 307 313 317 320 325 328 330 332 333 334 334 336 336 337 338 337 333 331 331 335 337 338 338 338 337 336 335 334 334 333 330 329 328 325 324 324 324
290 289 289 290 294 294 294 295 300 303 303 304 304 306 310 315 318 318 323 328 330 332 333 334 335 336 337 337 337 336 336 335 336 338 338 338 337 337 336 335 334 334 332 330 327 327 326 325 324
289 288 287 289 290 291 291 291 294 298 299 301 304 307 306 307 311 314 315 317 321 327 330 331 333 335 336 337 337 336 335 334 335 335 336 337 337 337 336 335 335 335 334 331 331 329 326 326 327
286 293 291 289 287 284 289 285 294 294 295 296 299 302 304 307 307 307 310 311 313 316 321 328 331 332 334 336 335 333 330 330 333 334 336 336 337 336 336 336 335 335 334 333 333 332 330 329 325
288 294 291 291 288 287 286 284 290 291 291 294 296 298 301 304 306 308 309 310 311 312 313 314 319 326 330 333 334 333 332 334 335 335 335 335 335 336 335 335 335 334 334 334 334 333 331 330 327
294 292 291 290 288 280 285 284 286 289 291 293 295 297 298 299 301 302 304 306 306 309 309 310 309 312 321 328 331 332 332 332 332 332 332 333 333 333 333 333 333 333 331 330 333 334 332 332 330
293 288 280 278 280 279 286 283 287 292 293 294 294 296 297 297 297 298 297 298 300 302 305 306 308 308 314 321 326 330 330 332 331 331 331 331 330 328 329 328 328 328 329 329 331 332 331 330 328
288 286 281 274 276 279 283 280 285 292 294 295 295 296 297 298 299 298 299 299 299 300 302 303 305 307 311 317 323 327 329 331 331 331 330 330 328 327 328 327 327 328 327 326 325 325 318 318 318
287 283 288 282 280 280 282 286 290 292 293 293 293 294 295 295 297 298 299 301 302 303 305 306 307 308 309 311 316 319 319 319 321 322 322 323 322 320 320 322 321 320 319 314 313 311 309 311 311
290 292 281 284 276 275 279 281 285 287 289 291 293 294 295 298 299 299 300 301 302 302 303 304 304 304 304 305 306 307 308 311 312 312 312 312 314 313 314 316 316 313 311 309 306 304 305 305 305
287 285 286 286 283 278 276 281 289 290 292 293 294 295 297 298 298 299 300 299 299 300 300 301 301 301 301 301 301 303 303 303 305 307 307 308 308 309 310 310 308 306 304 304 302 301 301 301 300
291 288 287 281 279 282 280 282 289 290 290 294 294 295 296 297 298 299 299 299 299 299 299 298 298 299 298 298 299 299 299 299 301 302 302 302 303 304 305 303 301 299 298 299 301 301 299 298 295
Wind_Speed
4 7 3 4 5 4 4 6 1 9 10 5 10 5 4 4 2 4 6 6 17 16 16 16 12 15 15 12 14 14 15 16 15 13 12 14 14 13 13 12 11 11 14 14 14 13 12 13 14
2 4 4 2 5 7 6 5 10 12 7 10 9 5 5 3 3 7 13 9 19 16 15 15 12 15 15 14 12 13 13 15 14 12 12 13 13 13 13 12 12 12 13 13 12 12 11 12 13
3 5 4 4 4 6 3 9 10 8 11 9 7 1 1 3 4 13 8 17 19 16 14 16 13 15 15 14 13 11 10 11 12 11 11 13 14 12 12 10 12 12 12 13 11 11 11 11 12
4 4 3 6 8 4 2 8 11 13 4 6 4 6 4 2 6 7 16 18 18 16 15 14 16 16 14 13 12 12 13 12 11 11 12 11 11 11 11 13 9 10 10 10 10 9 9 10 10
3 4 6 6 8 2 3 3 13 15 10 10 8 7 5 5 6 11 16 17 17 16 14 16 12 15 13 13 12 12 12 13 12 10 12 11 11 10 7 11 14 11 9 9 8 8 8 8 8
5 4 6 11 10 3 3 7 10 13 8 7 6 8 6 6 12 12 16 17 16 16 15 15 12 11 11 9 8 8 9 11 9 10 9 12 11 9 8 9 10 10 9 8 7 7 7 7 7
6 6 11 7 10 4 5 10 12 13 9 10 2 10 5 7 11 14 15 16 15 15 14 14 14 12 10 8 8 7 6 8 10 7 10 9 7 9 8 9 8 7 8 7 7 7 6 6 6
4 5 7 8 9 9 8 12 6 11 9 2 4 6 6 15 14 13 13 14 14 14 14 13 13 13 12 11 8 8 7 7 8 7 8 9 7 6 8 7 7 9 9 8 7 6 5 4 4
2 6 10 12 10 7 9 12 5 2 7 5 6 2 3 21 17 12 14 14 13 12 13 13 12 12 12 12 10 8 8 8 7 8 7 8 7 8 8 5 4 4 6 7 8 6 5 3 3
6 6 11 4 6 6 12 13 13 8 9 8 9 4 9 18 17 16 16 16 16 15 14 13 12 12 11 9 11 11 10 9 9 9 9 6 7 6 5 5 3 1 3 3 5 6 4 5 2
3 9 5 4 5 3 9 11 9 8 12 13 15 14 15 16 16 17 17 17 16 15 12 13 13 12 12 9 8 6 6 6 7 10 9 7 5 5 5 5 5 6 5 5 6 5 5 4 4
10 10 5 3 3 4 6 5 8 14 4 4 8 17 19 19 19 19 18 17 16 16 15 14 14 12 12 8 8 8 7 7 7 8 11 7 5 6 5 5 5 5 4 6 5 4 4 5 5
12 12 5 5 3 4 4 8 7 12 6 1 9 16 19 19 18 17 16 15 16 17 15 15 14 13 11 11 8 8 8 7 8 8 9 8 7 7 6 5 5 5 4 5 5 5 5 5 5
7 8 8 5 4 3 5 4 5 8 10 5 12 15 16 20 20 16 17 17 17 16 16 15 14 14 13 11 11 9 8 8 7 8 8 11 8 7 7 6 6 6 5 5 5 5 4 4 4
8 15 7 9 7 4 4 5 12 6 7 10 11 13 14 15 18 20 18 18 17 14 15 16 14 15 14 14 11 9 8 8 8 8 11 11 10 9 8 7 6 6 6 6 5 5 5 5 5
9 7 10 11 9 5 9 16 15 8 9 14 12 12 13 16 18 16 16 17 17 16 17 16 14 16 16 13 11 9 9 9 9 8 8 12 12 11 9 7 7 7 6 6 6 5 5 5 5
12 13 21 19 11 7 13 13 17 10 11 12 15 14 12 13 15 16 16 16 16 16 15 16 16 16 16 14 11 11 11 10 9 9 9 12 12 12 10 8 8 8 6 6 5 5 5 5 5
17 20 20 22 9 10 14 16 14 6 12 15 13 14 13 14 19 16 16 15 15 15 15 15 14 16 15 11 10 9 9 10 9 9 10 12 11 13 11 9 9 8 6 7 6 7 6 5 5
13 12 19 9 3 5 18 19 21 9 6 11 12 12 14 15 14 12 13 14 14 14 15 17 16 16 12 11 10 9 9 10 9 10 13 13 12 13 12 9 10 9 9 10 9 6 7 6 5
8 11 11 4 4 6 6 16 20 15 14 12 13 14 14 13 12 11 12 13 16 16 16 17 17 17 14 12 11 9 10 10 10 10 12 14 15 14 12 12 10 11 8 10 9 10 5 5 6
17 14 5 6 6 1 5 14 14 12 15 15 15 14 11 14 15 14 13 15 14 16 17 17 17 17 17 16 10 9 6 4 7 10 11 14 16 15 15 14 12 11 10 9 10 10 10 8 7
21 12 9 8 6 8 3 17 17 12 14 11 13 14 17 17 14 14 14 13 14 15 13 16 17 17 16 17 13 16 12 12 11 11 10 10 14 15 15 15 14 13 10 11 10 10 11 9 7
13 13 12 8 6 4 5 8 13 1 11 12 11 14 15 16 16 18 17 14 13 9 10 11 13 15 16 16 17 14 15 11 10 9 10 11 10 13 14 14 14 13 10 12 13 11 11 9 8
16 13 9 6 3 9 19 10 14 13 9 6 5 6 8 8 10 13 13 12 13 10 9 10 11 14 15 16 19 18 18 16 11 11 9 9 8 8 11 12 12 12 11 11 10 12 13 10 8
13 20 6 5 7 12 9 9 17 5 5 6 5 7 4 2 6 8 9 9 10 10 10 10 12 13 13 16 17 18 19 17 15 13 10 10 8 8 10 11 10 8 11 10 10 9 9 7 6
18 20 8 10 8 14 6 11 8 6 6 7 7 8 8 7 6 7 9 10 10 10 9 9 11 13 11 13 16 14 15 10 10 12 9 8 8 8 8 10 10 10 9 7 6 5 3 4 4
15 13 3 6 1 3 7 7 9 6 8 1 5 2 6 7 8 10 9 7 8 8 8 6 6 7 7 7 8 9 7 7 7 8 7 6 6 5 8 9 10 8 7 6 5 4 5 4 5
13 14 7 2 8 6 5 6 6 3 2 5 5 7 6 7 9 9 8 8 6 5 6 5 3 0 1 3 3 3 4 5 5 5 6 6 5 7 8 9 9 7 6 6 6 4 5 6 5
7 13 5 5 2 5 4 4 1 7 9 9 9 9 8 8 8 7 5 5 4 4 4 5 4 3 3 2 1 3 2 1 2 3 4 4 5 6 7 8 8 8 7 7 5 6 7 7 7
14 12 15 9 8 8 1 2 5 10 4 6 9 6 5 4 6 5 5 4 3 3 3 2 1 1 2 2 2 2 2 1 2 3 3 3 4 4 6 7 7 7 7 7 8 9 8 9 9
Wind_Direction
317 175 174 212 229 244 196 178 178 156 164 140 152 211 205 354 287 26 142 131 142 149 152 163 161 149 139 135 136 142 145 140 129 127 122 117 114 115 110 102 105 112 111 99 89 86 75 75 107
223 183 214 199 247 212 175 171 189 169 126 138 152 155 198 122 82 114 143 163 149 148 156 166 155 147 141 141 139 145 146 132 134 129 128 124 119 117 119 117 118 120 116 108 101 94 80 72 69
222 257 243 235 249 231 209 184 176 143 141 163 148 242 128 106 99 154 124 156 148 151 155 146 145 149 147 147 148 143 135 135 138 139 138 132 133 127 119 116 123 124 122 114 108 99 86 77 73
247 198 178 246 223 230 279 176 162 150 166 204 177 156 144 28 144 156 144 153 152 153 156 145 146 149 151 152 155 152 150 147 146 150 141 140 147 130 130 128 114 120 118 115 111 102 94 86 79
235 242 224 235 238 266 218 192 174 173 163 174 194 146 130 128 133 139 150 157 156 156 156 161 150 146 153 162 168 158 157 154 150 155 152 146 134 139 131 146 138 127 118 114 111 106 98 87 79
230 274 220 221 214 207 215 170 182 186 177 154 190 162 123 115 150 155 161 161 160 159 159 159 152 144 147 156 154 160 178 152 167 152 153 139 146 146 129 123 126 137 126 124 117 109 102 91 82
272 230 226 241 229 224 193 166 190 187 180 192 141 178 116 161 159 157 169 162 163 161 165 165 168 160 152 161 158 161 157 143 135 126 147 144 143 156 151 145 147 151 144 137 132 122 114 105 91
276 263 209 216 217 216 161 171 193 192 188 101 209 190 173 170 163 154 168 165 167 167 171 171 171 172 174 169 157 158 156 148 151 143 133 134 131 119 154 151 161 162 157 160 158 152 145 130 108
252 237 221 215 210 199 159 184 164 139 161 192 186 293 27 142 151 152 162 171 172 176 180 179 178 181 177 176 167 161 158 160 160 159 156 160 189 181 167 145 151 204 194 176 178 185 183 175 168
235 238 225 238 214 216 180 204 161 184 179 199 180 123 138 148 157 164 172 173 180 183 186 185 185 183 181 182 174 183 174 182 187 185 178 196 190 196 212 174 185 143 148 184 199 199 208 226 272
197 239 257 249 225 238 188 204 182 197 203 203 194 163 162 165 173 179 180 184 185 183 185 199 189 187 186 184 184 188 188 191 191 193 189 193 192 187 200 201 200 209 195 221 209 201 228 253 277
252 245 251 313 212 191 193 171 205 210 163 244 196 160 164 177 183 184 186 188 187 191 193 193 196 192 192 189 194 192 194 196 199 199 196 194 201 200 205 208 206 214 216 230 232 239 252 257 260
252 251 218 265 233 248 163 208 211 226 217 70 158 163 175 180 190 192 191 190 192 195 195 198 203 196 194 198 195 200 205 200 202 201 203 207 207 206 207 214 218 222 216 226 231 239 243 251 261
317 265 273 227 224 245 234 208 196 225 204 171 173 190 187 188 187 188 194 196 198 199 199 196 200 207 200 202 201 198 204 206 208 208 208 211 216 214 213 215 219 223 227 232 238 241 242 251 264
258 274 263 236 216 220 200 225 229 202 182 204 207 196 199 200 188 196 193 196 193 201 196 199 194 208 207 208 207 209 205 207 209 213 213 211 214 218 217 223 225 227 220 228 232 236 241 253 254
179 245 256 240 196 206 199 239 237 196 188 209 209 215 202 203 206 203 197 201 196 197 198 195 196 203 206 208 209 213 211 210 213 214 214 214 215 219 219 222 225 223 219 219 220 224 233 247 255
196 206 212 242 213 187 205 232 242 204 211 218 212 212 212 213 209 212 206 201 199 204 199 200 199 202 204 209 213 217 219 218 216 216 215 214 215 216 220 221 223 217 215 217 213 217 220 233 244
195 218 199 215 187 216 207 230 235 218 220 225 222 215 216 220 221 206 209 209 204 207 207 205 202 207 205 205 212 217 217 222 221 220 220 216 215 215 217 223 223 210 209 211 209 220 212 239 248
242 214 221 197 94 239 223 228 237 207 233 234 236 236 224 222 231 220 211 213 209 210 209 209 206 205 202 203 201 209 212 219 222 224 221 218 218 214 215 221 222 210 215 215 209 208 221 230 223
179 203 203 105 114 189 239 240 249 243 245 238 237 236 242 241 234 218 214 217 216 213 215 213 213 207 204 204 203 209 204 221 219 224 223 218 217 216 214 217 221 218 221 222 205 205 199 223 190
211 199 184 215 126 130 266 251 247 244 235 240 240 247 251 250 250 252 235 219 218 224 219 218 216 213 210 209 206 206 215 209 209 219 220 216 215 213 214 217 221 223 222 225 224 214 204 218 200
207 205 163 134 131 234 315 263 224 237 249 234 239 231 238 242 244 255 251 244 229 229 230 226 223 220 217 209 204 201 207 213 218 214 218 213 210 212 214 219 218 222 221 224 224 223 226 231 224
217 170 180 142 133 159 220 266 253 279 254 249 234 232 237 243 245 248 248 253 255 253 236 238 240 231 221 212 211 210 219 222 224 218 217 209 203 209 209 212 217 222 224 227 226 220 219 217 228
137 128 89 77 138 240 226 225 255 221 227 248 235 238 252 269 270 273 276 273 264 255 242 235 230 233 229 219 216 217 220 221 219 216 213 208 200 197 206 210 214 219 221 222 226 225 223 209 210
166 158 139 167 195 232 185 216 251 240 236 250 293 310 326 346 301 286 283 280 273 262 253 240 234 232 223 225 224 223 226 225 224 222 215 208 202 205 206 208 210 212 223 224 224 222 222 228 214
190 185 179 194 198 216 148 222 243 231 257 274 288 303 309 313 322 306 304 298 295 304 297 270 244 239 227 222 223 225 229 230 226 228 222 219 213 212 204 206 215 215 216 215 210 202 156 174 171
184 210 118 108 75 193 184 239 264 264 256 132 48 1 350 2 347 340 344 338 329 326 323 307 275 256 236 236 242 226 218 218 216 222 226 228 219 204 199 198 198 193 183 171 167 151 144 158 160
192 169 158 148 171 216 196 238 244 159 106 16 58 46 28 12 4 0 4 0 1 4 350 360 27 26 77 135 175 215 213 216 214 200 207 206 196 187 186 184 179 175 174 167 157 132 153 148 158
162 187 196 168 197 209 227 195 216 140 118 93 75 75 56 39 14 5 12 17 5 12 26 28 27 67 88 77 113 152 139 158 171 191 183 185 173 181 180 173 168 169 169 174 157 169 166 162 162
203 194 198 195 196 225 110 143 124 115 83 92 85 69 62 47 32 19 5 2 3 359 11 36 35 38 26 45 37 33 81 121 158 162 161 154 156 164 168 164 162 162 166 177 182 181 186 177 168